• en Suisse
  • Liste des pays
  • À 7 jours
  • Température de l'eau
  • Carte satellitaire
  • Carte météo
  • Widgets météo
  • user-avatar
    Se connecter

    Météo par heure à Spasskoe

    Ce jour, 16 Octobre, Mardi

    Heure Température Précipitation Vent Pression Humidité
    00:00 +9°C° 0 mm 2 m/s 753 mmHg 88%
    01:00 +9°C° 0 mm 2 m/s 753 mmHg 88%
    02:00 +8°C° 0 mm 2 m/s 753 mmHg 87%
    03:00 +7°C° 0 mm 2 m/s 753 mmHg 87%
    04:00 +7°C° 0 mm 2 m/s 753 mmHg 86%
    05:00 +7°C° 0 mm 2 m/s 753 mmHg 85%
    06:00 +8°C° 0 mm 2 m/s 752 mmHg 81%
    07:00 +8°C° 0 mm 3 m/s 752 mmHg 77%
    08:00 +9°C° 0 mm 3 m/s 753 mmHg 71%
    09:00 +10°C° 0 mm 3 m/s 752 mmHg 66%
    10:00 +12°C° 0 mm 3 m/s 752 mmHg 61%
    11:00 +13°C° 0 mm 3 m/s 752 mmHg 57%
    12:00 +14°C° 0 mm 3 m/s 752 mmHg 56%
    13:00 +14°C° 0 mm 3 m/s 752 mmHg 55%
    14:00 +17°C° 0 mm 3 m/s 751 mmHg 56%
    15:00 +14°C° 0 mm 3 m/s 751 mmHg 61%
    16:00 +13°C° 0 mm 3 m/s 751 mmHg 67%
    17:00 +12°C° 0 mm 3 m/s 751 mmHg 73%
    18:00 +11°C° 0 mm 3 m/s 751 mmHg 74%
    19:00 +11°C° 0 mm 3 m/s 750 mmHg 75%
    20:00 +11°C° 0 mm 3 m/s 750 mmHg 76%
    21:00 +10°C° 0 mm 3 m/s 750 mmHg 78%
    22:00 +10°C° 0 mm 3 m/s 750 mmHg 79%
    23:00 +9°C° 0 mm 3 m/s 750 mmHg 81%

    Demain, 17 Octobre, Mercredi

    Heure Température Précipitation Vent Pression Humidité
    00:00 +9°C° 0 mm 3 m/s 750 mmHg 84%
    01:00 +9°C° 0 mm 3 m/s 751 mmHg 86%
    02:00 +8°C° 0 mm 2 m/s 751 mmHg 89%
    03:00 +8°C° 0 mm 2 m/s 751 mmHg 90%
    04:00 +8°C° 0 mm 2 m/s 751 mmHg 92%
    05:00 +7°C° 0 mm 2 m/s 751 mmHg 93%
    06:00 +8°C° 0 mm 2 m/s 751 mmHg 90%
    07:00 +8°C° 0 mm 2 m/s 751 mmHg 88%
    08:00 +9°C° 0 mm 2 m/s 751 mmHg 85%
    09:00 +10°C° 0 mm 2 m/s 751 mmHg 80%
    10:00 +13°C° 0 mm 2 m/s 752 mmHg 74%
    11:00 +14°C° 0 mm 1 m/s 752 mmHg 68%
    12:00 +15°C° 0 mm 1 m/s 752 mmHg 67%
    13:00 +15°C° 0 mm 1 m/s 752 mmHg 65%
    14:00 +16°C° 0 mm 1 m/s 752 mmHg 64%
    15:00 +15°C° 0 mm 1 m/s 752 mmHg 70%
    16:00 +13°C° 0 mm 1 m/s 752 mmHg 76%
    17:00 +12°C° 0 mm 1 m/s 752 mmHg 83%
    18:00 +11°C° 0 mm 1 m/s 752 mmHg 85%
    19:00 +11°C° 0 mm 1 m/s 752 mmHg 86%
    20:00 +11°C° 0 mm 1 m/s 752 mmHg 88%
    21:00 +10°C° 0 mm 1 m/s 752 mmHg 89%
    22:00 +10°C° 0 mm 1 m/s 751 mmHg 90%
    23:00 +10°C° 0 mm 1 m/s 751 mmHg 91%

    Après-demain, 18 Octobre, Jeudi

    Heure Température Précipitation Vent Pression Humidité
    00:00 +9°C° 0 mm 1 m/s 751 mmHg 91%
    01:00 +8°C° 0 mm 2 m/s 751 mmHg 92%
    02:00 +8°C° 0 mm 2 m/s 751 mmHg 92%
    03:00 +8°C° 0 mm 2 m/s 751 mmHg 93%
    04:00 +8°C° 0 mm 2 m/s 751 mmHg 93%
    05:00 +7°C° 0 mm 2 m/s 751 mmHg 93%
    06:00 +8°C° 0 mm 2 m/s 750 mmHg 91%
    07:00 +9°C° 0 mm 2 m/s 750 mmHg 88%
    08:00 +9°C° 0 mm 2 m/s 750 mmHg 86%
    09:00 +12°C° 0 mm 2 m/s 750 mmHg 80%
    10:00 +12°C° 0 mm 3 m/s 750 mmHg 74%
    11:00 +14°C° 0 mm 3 m/s 750 mmHg 68%
    12:00 +14°C° 0 mm 3 m/s 749 mmHg 67%
    13:00 +16°C° 0 mm 3 m/s 749 mmHg 65%
    14:00 +17°C° 0 mm 3 m/s 749 mmHg 64%
    15:00 +14°C° 0 mm 3 m/s 748 mmHg 71%
    16:00 +13°C° 0 mm 3 m/s 748 mmHg 79%
    17:00 +13°C° 0 mm 2 m/s 748 mmHg 86%
    18:00 +12°C° 0 mm 2 m/s 748 mmHg 88%
    19:00 +12°C° 0 mm 2 m/s 747 mmHg 90%
    20:00 +11°C° 0 mm 3 m/s 747 mmHg 92%
    21:00 +11°C° 0 mm 3 m/s 747 mmHg 92%
    22:00 +11°C° 0 mm 3 m/s 747 mmHg 92%
    23:00 +11°C° 0 mm 3 m/s 747 mmHg 93%

    19 Octobre, Vendredi

    Heure Température Précipitation Vent Pression Humidité
    00:00 +11°C° 0 mm 3 m/s 747 mmHg 93%
    01:00 +10°C° 0 mm 3 m/s 746 mmHg 93%
    02:00 +10°C° 0 mm 3 m/s 746 mmHg 94%
    03:00 +10°C° 0 mm 3 m/s 746 mmHg 94%
    04:00 +10°C° 0 mm 3 m/s 746 mmHg 94%
    05:00 +10°C° 0 mm 3 m/s 745 mmHg 95%
    06:00 +10°C° 0 mm 3 m/s 745 mmHg 93%
    07:00 +11°C° 0 mm 3 m/s 745 mmHg 92%
    08:00 +11°C° 0 mm 3 m/s 745 mmHg 90%
    09:00 +12°C° 0 mm 3 m/s 745 mmHg 86%
    10:00 +13°C° 0 mm 3 m/s 745 mmHg 81%
    11:00 +14°C° 0 mm 3 m/s 745 mmHg 76%
    12:00 +14°C° 0 mm 3 m/s 745 mmHg 76%
    13:00 +14°C° 0 mm 3 m/s 745 mmHg 75%
    14:00 +14°C° 0 mm 3 m/s 745 mmHg 75%
    15:00 +13°C° 0.1 mm 3 m/s 745 mmHg 78%
    16:00 +12°C° 0.1 mm 3 m/s 745 mmHg 81%
    17:00 +11°C° 0.1 mm 3 m/s 746 mmHg 84%
    18:00 +10°C° 0 mm 3 m/s 746 mmHg 85%
    19:00 +9°C° 0 mm 2 m/s 746 mmHg 86%
    20:00 +8°C° 0 mm 2 m/s 746 mmHg 87%
    21:00 +7°C° 0 mm 2 m/s 747 mmHg 87%
    22:00 +7°C° 0 mm 2 m/s 747 mmHg 86%
    23:00 +6°C° 0 mm 2 m/s 747 mmHg 86%

    20 Octobre, Samedi

    Heure Température Précipitation Vent Pression Humidité
    00:00 +5°C° 0 mm 2 m/s 747 mmHg 88%
    01:00 +5°C° 0 mm 2 m/s 748 mmHg 89%
    02:00 +5°C° 0 mm 2 m/s 748 mmHg 91%
    03:00 +4°C° 0 mm 2 m/s 748 mmHg 92%
    04:00 +4°C° 0 mm 2 m/s 748 mmHg 93%
    05:00 +4°C° 0 mm 2 m/s 748 mmHg 94%
    06:00 +4°C° 0 mm 2 m/s 748 mmHg 92%
    07:00 +4°C° 0 mm 2 m/s 749 mmHg 90%
    08:00 +5°C° 0 mm 2 m/s 749 mmHg 88%
    09:00 +6°C° 0 mm 2 m/s 749 mmHg 83%
    10:00 +7°C° 0 mm 2 m/s 749 mmHg 77%
    11:00 +8°C° 0 mm 2 m/s 750 mmHg 71%
    12:00 +9°C° 0 mm 2 m/s 750 mmHg 69%
    13:00 +9°C° 0 mm 2 m/s 750 mmHg 68%
    14:00 +9°C° 0 mm 2 m/s 750 mmHg 66%
    15:00 +8°C° 0 mm 2 m/s 750 mmHg 72%
    16:00 +7°C° 0 mm 2 m/s 750 mmHg 78%
    17:00 +7°C° 0 mm 1 m/s 750 mmHg 84%
    18:00 +6°C° 0 mm 1 m/s 750 mmHg 87%
    19:00 +6°C° 0 mm 1 m/s 750 mmHg 90%
    20:00 +5°C° 0 mm 1 m/s 750 mmHg 93%
    21:00 +5°C° 0 mm 1 m/s 750 mmHg 94%
    22:00 +5°C° 0 mm 1 m/s 750 mmHg 94%
    23:00 +4°C° 0 mm 1 m/s 750 mmHg 95%

    21 Octobre, Dimanche

    Heure Température Précipitation Vent Pression Humidité
    00:00 +4°C° 0 mm 1 m/s 750 mmHg 95%
    01:00 +4°C° 0 mm 1 m/s 750 mmHg 95%
    02:00 +4°C° 0 mm 1 m/s 750 mmHg 95%
    03:00 +4°C° 0 mm 1 m/s 750 mmHg 95%
    04:00 +4°C° 0 mm 1 m/s 750 mmHg 94%
    05:00 +4°C° 0 mm 1 m/s 750 mmHg 94%
    06:00 +4°C° 0 mm 1 m/s 751 mmHg 91%
    07:00 +5°C° 0 mm 1 m/s 751 mmHg 88%
    08:00 +5°C° 0 mm 1 m/s 751 mmHg 85%
    09:00 +6°C° 0 mm 1 m/s 751 mmHg 80%
    10:00 +7°C° 0 mm 1 m/s 751 mmHg 75%
    11:00 +7°C° 0 mm 1 m/s 751 mmHg 70%
    12:00 +8°C° 0 mm 1 m/s 751 mmHg 68%
    13:00 +8°C° 0 mm 1 m/s 751 mmHg 67%
    14:00 +8°C° 0 mm 1 m/s 751 mmHg 66%
    15:00 +7°C° 0 mm 1 m/s 751 mmHg 70%
    16:00 +6°C° 0 mm 1 m/s 751 mmHg 75%
    17:00 +4°C° 0 mm 0 m/s 751 mmHg 79%
    18:00 +5°C° 0 mm 1 m/s 751 mmHg 81%
    19:00 +5°C° 0 mm 1 m/s 751 mmHg 83%
    20:00 +4°C° 0 mm 1 m/s 751 mmHg 86%
    21:00 +4°C° 0 mm 1 m/s 752 mmHg 87%
    22:00 +4°C° 0 mm 1 m/s 752 mmHg 89%
    23:00 +4°C° 0 mm 1 m/s 752 mmHg 90%
    Voir plus